Location: Newark
(49.8348°N, 24.0280°E)
Time: 13:21:48
(UTC+00:00)

Explorer 7 - Pass Details

Date: 23 January 2020
Orbit: 485 x 679 km, 50.3° (Epoch: 28 February)

Event Time Altitude Azimuth Distance (km) Brightness Sun altitude
Rises 20:49:44 0° 197° (SSW) 2,557 - -53.0°
Reaches altitude 10° 20:52:42 10° 172° (S) 1,666 - -53.3°
Maximum altitude 20:54:45 14° 138° (SE) 1,416 - -53.5°
Drops below altitude 10° 20:56:49 10° 105° (ESE) 1,666 - -53.8°
Sets 20:59:47 0° 80° (E) 2,559 - -54.1°
